Weather History for KLYV - April, 2014

Change the Weather History Date:

Saturday, April 19, 2014

  Actual Average (KFSD) Record (KFSD)
Temperature  
Mean Temperature 62 °F 48 °F  
Max Temperature 73 °F 60 °F 89 °F (1987)
Min Temperature 50 °F 36 °F 15 °F (1928)
Degree Days  
Heating Degree Days 4 17  
Month to date heating degree days 400  
Since 1 July heating degree days 7245  
Cooling Degree Days 0 0  
Month to date cooling degree days 0  
Year to date cooling degree days 0  
Growing Degree Days 12 (Base 50)    
Moisture  
Dew Point 39 °F    
Average Humidity 45    
Maximum Humidity 71    
Minimum Humidity 26    
Precipitation  
Precipitation 0.00 in 0.11 in 1.90 in (1916)
Month to date precipitation 1.86  
Year to date precipitation 4.78  
Snow  
Snow 0.00 in 0.10 in 0.50 in (1966)
Month to date snowfall 3.5  
Since 1 July snowfall 43.4  
Snow Depth -    
Sea Level Pressure  
Sea Level Pressure 29.98 in    
Wind  
Wind Speed 15 mph (SSW)    
Max Wind Speed 26 mph    
Max Gust Speed 34 mph    
Visibility 10 miles    
Events Rain    
T = Trace of Precipitation, MM = Missing Value Source: NWS Daily Summary

Daily Weather History Graph

Daily Weather History Graph

Search for Another Location

Airport or City:

Trip Planner

Search our weather history database for the weather conditions in past years. The results will help you decide how hot, cold, wet, or windy it might be!

Date:

Astronomy

Apr. 19, 2014 Rise Set
Actual Time 6:35 AM CDT 8:13 PM CDT
Civil Twilight 6:05 AM CDT 8:43 PM CDT
Nautical Twilight 5:28 AM CDT 9:20 PM CDT
Astronomical Twilight 4:49 AM CDT 9:59 PM CDT
Moon 12:02 AM CDT (4/19) 9:50 AM CDT (4/19)
Length of Visible Light 14h 38m
Length of Day
13h 37m
Waning Gibbous, 78% of the Moon is Illuminated
Apr 19
Waning Gibbous
Apr 22
Last Quarter
Apr 29
New
May 6
First Quarter
May 14
Full

Hourly Weather History & Observations

Time (CDT) Temp. Dew Point Humidity Pressure Visibility Wind Dir Wind Speed Gust Speed Precip Events Conditions
12:15 AM 53.6 °F 35.6 °F 51% 29.98 in 10.0 mi SSE 19.6 mph 26.5 mph N/A   Clear
12:34 AM 53.6 °F 35.6 °F 51% 29.97 in 10.0 mi SSE 18.4 mph 23.0 mph N/A   Clear
12:55 AM 53.6 °F 35.6 °F 51% 29.97 in 10.0 mi SSE 15.0 mph - N/A   Clear
1:15 AM 53.6 °F 35.6 °F 51% 29.97 in 10.0 mi South 16.1 mph 20.7 mph N/A   Clear
1:35 AM 53.6 °F 37.4 °F 54% 29.97 in 10.0 mi South 16.1 mph 20.7 mph N/A   Clear
1:54 AM 53.6 °F 37.4 °F 54% 29.96 in 10.0 mi South 19.6 mph 25.3 mph N/A   Clear
2:15 AM 53.6 °F 37.4 °F 54% 29.95 in 10.0 mi South 20.7 mph 26.5 mph N/A   Clear
2:35 AM 53.6 °F 37.4 °F 54% 29.95 in 10.0 mi South 18.4 mph 26.5 mph N/A   Clear
2:55 AM 53.6 °F 37.4 °F 54% 29.95 in 10.0 mi South 20.7 mph 26.5 mph N/A   Clear
3:15 AM 53.6 °F 37.4 °F 54% 29.95 in 10.0 mi South 17.3 mph 25.3 mph N/A   Clear
3:35 AM 53.6 °F 37.4 °F 54% 29.97 in 10.0 mi South 12.7 mph - N/A   Clear
3:55 AM 53.6 °F 37.4 °F 54% 29.97 in 10.0 mi South 13.8 mph - N/A   Clear
4:15 AM 51.8 °F 37.4 °F 58% 29.98 in 10.0 mi South 11.5 mph - N/A   Clear
4:35 AM 51.8 °F 37.4 °F 58% 29.98 in 10.0 mi South 10.4 mph - N/A   Clear
4:55 AM 51.8 °F 37.4 °F 58% 29.98 in 10.0 mi SSE 12.7 mph - N/A   Clear
5:15 AM 51.8 °F 39.2 °F 62% 29.97 in 10.0 mi South 12.7 mph - N/A   Clear
5:35 AM 50.0 °F 39.2 °F 66% 29.97 in 10.0 mi SSE 17.3 mph 21.9 mph N/A   Clear
5:55 AM 50.0 °F 37.4 °F 62% 29.96 in 10.0 mi South 16.1 mph 24.2 mph N/A   Clear
6:15 AM 50.0 °F 39.2 °F 66% 29.99 in 10.0 mi South 11.5 mph - N/A   Clear
6:35 AM 50.0 °F 39.2 °F 66% 29.97 in 10.0 mi SSE 17.3 mph - N/A   Clear
7:15 AM 50.0 °F 39.2 °F 66% 29.98 in 10.0 mi South 16.1 mph - N/A   Clear
7:35 AM 50.0 °F 39.2 °F 66% 29.98 in 10.0 mi South 15.0 mph 19.6 mph N/A   Clear
7:55 AM 50.0 °F 41.0 °F 71% 29.99 in 10.0 mi South 17.3 mph - N/A   Clear
8:15 AM 51.8 °F 41.0 °F 67% 29.98 in 10.0 mi South 17.3 mph 24.2 mph N/A   Clear
8:35 AM 53.6 °F 41.0 °F 62% 29.98 in 10.0 mi South 18.4 mph 23.0 mph N/A   Clear
8:55 AM 55.4 °F 41.0 °F 58% 29.98 in 10.0 mi South 23.0 mph 27.6 mph N/A   Clear
9:15 AM 59.0 °F 41.0 °F 51% 29.98 in 10.0 mi South 25.3 mph 32.2 mph N/A   Clear
9:35 AM 59.0 °F 41.0 °F 51% 29.99 in 10.0 mi SSW 23.0 mph 33.4 mph N/A   Clear
9:55 AM 60.8 °F 41.0 °F 48% 29.98 in 10.0 mi SSW 26.5 mph 34.5 mph N/A   Clear
10:15 AM 62.6 °F 42.8 °F 48% 29.98 in 10.0 mi SSW 21.9 mph 31.1 mph N/A   Clear
10:35 AM 64.4 °F 42.8 °F 45% 29.99 in 10.0 mi SW 23.0 mph 29.9 mph N/A   Clear
10:55 AM 64.4 °F 42.8 °F 45% 29.99 in 10.0 mi SW 21.9 mph 29.9 mph N/A   Clear
11:15 AM 66.2 °F 42.8 °F 43% 29.99 in 10.0 mi SW 23.0 mph 29.9 mph N/A   Clear
11:34 AM 68.0 °F 42.8 °F 40% 29.98 in 10.0 mi SW 20.7 mph 27.6 mph N/A   Clear
11:55 AM 68.0 °F 42.8 °F 40% 29.98 in 10.0 mi SSW 19.6 mph 25.3 mph N/A   Clear
12:15 PM 69.8 °F 42.8 °F 38% 29.98 in 10.0 mi WSW 16.1 mph 26.5 mph N/A   Clear
12:35 PM 69.8 °F 42.8 °F 38% 29.98 in 10.0 mi SW 17.3 mph 23.0 mph N/A   Clear
12:55 PM 71.6 °F 42.8 °F 35% 29.98 in 10.0 mi WSW 16.1 mph - N/A   Clear
1:15 PM 71.6 °F 42.8 °F 35% 29.99 in 10.0 mi West 15.0 mph 24.2 mph N/A   Clear
1:35 PM 71.6 °F 41.0 °F 33% 29.98 in 10.0 mi WSW 10.4 mph 19.6 mph N/A   Clear
1:55 PM 73.4 °F 41.0 °F 31% 29.97 in 10.0 mi WSW 12.7 mph - N/A   Clear
2:15 PM 73.4 °F 41.0 °F 31% 29.97 in 10.0 mi SW 8.1 mph - N/A   Clear
2:35 PM 71.6 °F 41.0 °F 33% 29.97 in 10.0 mi NW 12.7 mph - N/A   Clear
2:55 PM 71.6 °F 41.0 °F 33% 29.97 in 10.0 mi NW 8.1 mph 17.3 mph N/A   Clear
3:15 PM 71.6 °F 41.0 °F 33% 29.97 in 10.0 mi NNW 8.1 mph - N/A   Clear
3:35 PM 71.6 °F 41.0 °F 33% 29.98 in 10.0 mi WNW 9.2 mph - N/A   Clear
3:55 PM 71.6 °F 41.0 °F 33% 29.98 in 10.0 mi NW 9.2 mph - N/A   Clear
4:15 PM 69.8 °F 41.0 °F 35% 29.98 in 10.0 mi NNW 11.5 mph - N/A   Clear
4:35 PM 69.8 °F 41.0 °F 35% 29.98 in 10.0 mi NNW 11.5 mph - N/A   Clear
4:54 PM 69.8 °F 37.4 °F 31% 29.98 in 10.0 mi NNW 11.5 mph - N/A   Clear
5:15 PM 69.8 °F 35.6 °F 28% 29.99 in 10.0 mi NNW 8.1 mph - N/A   Clear
5:35 PM 68.0 °F 35.6 °F 30% 29.99 in 10.0 mi North 9.2 mph - N/A   Scattered Clouds
5:55 PM 68.0 °F 35.6 °F 30% 29.98 in 10.0 mi North 6.9 mph - N/A   Scattered Clouds
6:15 PM 68.0 °F 33.8 °F 28% 29.99 in 10.0 mi North 6.9 mph - N/A   Mostly Cloudy
6:35 PM 68.0 °F 32.0 °F 26% 29.99 in 10.0 mi North 5.8 mph - N/A   Overcast
6:55 PM 68.0 °F 32.0 °F 26% 29.99 in 10.0 mi North 4.6 mph - N/A   Overcast
7:15 PM 68.0 °F 32.0 °F 26% 29.99 in 10.0 mi North 4.6 mph - N/A   Overcast
7:35 PM 66.2 °F 33.8 °F 30% 29.99 in 10.0 mi North 4.6 mph - N/A   Overcast
7:55 PM 64.4 °F 33.8 °F 32% 29.99 in 10.0 mi NNE 3.5 mph - N/A   Scattered Clouds
8:15 PM 62.6 °F 35.6 °F 37% 29.99 in 10.0 mi NE 3.5 mph - N/A   Scattered Clouds
8:35 PM 62.6 °F 33.8 °F 34% 30.00 in 10.0 mi North 3.5 mph - N/A   Clear
8:55 PM 62.6 °F 35.6 °F 37% 30.01 in 10.0 mi North 4.6 mph - N/A   Scattered Clouds
9:15 PM 60.8 °F 35.6 °F 39% 30.01 in 10.0 mi NNE 4.6 mph - N/A   Mostly Cloudy
9:35 PM 60.8 °F 35.6 °F 39% 30.02 in 10.0 mi NNE 4.6 mph - N/A   Overcast
9:55 PM 60.8 °F 37.4 °F 42% 30.02 in 10.0 mi NNE 4.6 mph - N/A   Overcast
10:15 PM 59.0 °F 37.4 °F 45% 30.03 in 10.0 mi NE 3.5 mph - N/A   Overcast
10:35 PM 59.0 °F 37.4 °F 45% 30.03 in 10.0 mi Calm Calm - N/A   Overcast
10:55 PM 59.0 °F 37.4 °F 45% 30.03 in 10.0 mi NNE 3.5 mph - N/A   Overcast
11:15 PM 59.0 °F 39.2 °F 48% 30.03 in 10.0 mi Calm Calm - N/A   Mostly Cloudy
11:35 PM 59.0 °F 39.2 °F 48% 30.03 in 10.0 mi Calm Calm - N/A   Overcast
11:55 PM 57.2 °F 41.0 °F 55% 30.03 in 10.0 mi NNE 3.5 mph - N/A Rain Light Rain